GW0168 Weather Reports


time (UTC)temp
C
wind
direction
speed
KPH
gust
KPH
rain 1hr
cm
rain 24hr
cm
rain mn
cm
humidity
%
barometer
mb
20260508043032 1 0 0.0 0.0 0.00 0.00 0.00 81 1006.4
20260508041527 2 0 0.0 3.2 0.00 0.00 0.00 81 1006.5
20260508040026 2 0 0.0 3.2 0.00 0.00 0.00 80 1006.5
20260508034526 2 0 0.0 3.2 0.00 0.00 0.00 79 1006.6
20260508033026 2 0 0.0 4.8 0.00 0.00 0.00 77 1006.6
20260508031526 3 0 1.6 8.0 0.00 0.00 0.00 76 1006.7
20260508030028 3 259 1.6 6.4 0.00 0.00 0.00 74 1006.7
20260508024529 3 360 1.6 6.4 0.00 0.00 0.00 73 1006.7
20260508023034 3 192 1.6 4.8 0.00 0.00 0.00 73 1006.6
20260508021531 3 332 1.6 6.4 0.00 0.00 0.00 74 1006.7
20260508020028 3 0 0.0 0.0 0.00 0.00 0.00 75 1006.6
20260508014532 3 0 0.0 0.0 0.00 0.00 0.00 74 1006.6
20260508013027 3 0 0.0 1.6 0.00 0.00 0.00 73 1006.5
20260508011536 3 0 0.0 0.0 0.00 0.00 0.00 74 1006.5
20260508010033 3 0 0.0 1.6 0.00 0.00 0.00 72 1006.4
20260508004530 3 332 0.0 3.2 0.00 0.00 0.00 72 1006.4
20260508003035 3 0 0.0 1.6 0.00 0.00 0.00 72 1006.2
20260508001528 4 0 0.0 3.2 0.00 0.00 0.00 70 1006.1
20260508000029 4 0 0.0 3.2 0.00 0.00 0.00 70 1006.1
20260507234529 5 0 0.0 3.2 0.00 0.00 0.00 68 1005.9
20260507233028 4 313 0.0 1.6 0.00 0.00 0.00 70 1005.9
20260507231527 5 0 0.0 8.0 0.00 0.00 0.00 67 1005.8
20260507230028 5 332 1.6 6.4 0.00 0.00 0.00 65 1005.8
20260507224530 6 322 1.6 14.5 0.00 0.00 0.00 63 1005.7
20260507223028 6 267 4.8 20.9 0.00 0.00 0.00 61 1005.7
20260507221527 6 244 3.2 12.9 0.00 0.00 0.00 61 1005.7
20260507220030 6 274 4.8 12.9 0.00 0.00 0.00 59 1005.7
20260507214530 6 277 3.2 12.9 0.00 0.00 0.00 64 1005.6
20260507213031 7 214 4.8 16.1 0.00 0.00 0.00 62 1005.5
20260507211529 6 360 3.2 19.3 0.00 0.00 0.00 64 1005.4
20260507210026 6 251 1.6 12.9 0.00 0.00 0.00 71 1005.2
20260507204528 6 280 3.2 16.1 0.00 0.00 0.00 72 1005.3
20260507203030 6 348 3.2 19.3 0.00 0.00 0.00 73 1005.2
20260507201527 6 324 1.6 9.7 0.00 0.00 0.00 70 1005.1
20260507200034 5 228 3.2 12.9 0.00 0.00 0.00 73 1005.3
20260507194526 6 267 6.4 17.7 0.00 0.00 0.00 69 1005.2
20260507193028 7 276 1.6 9.7 0.00 0.00 0.00 71 1004.8
20260507191531 5 279 3.2 17.7 0.00 0.00 0.00 78 1004.9
20260507190037 7 278 4.8 12.9 0.00 0.00 0.00 69 1004.9
20260507184536 5 260 3.2 12.9 0.00 0.00 0.00 75 1005.0
20260507183028 5 326 3.2 9.7 0.00 0.00 0.00 77 1004.7
20260507181528 5 251 3.2 9.7 0.00 0.00 0.00 81 1004.9
20260507180032 6 311 3.2 16.1 0.00 0.00 0.00 66 1004.8
20260507174531 8 275 6.4 12.9 0.00 0.00 0.00 56 1004.7
20260507173033 7 249 3.2 14.5 0.00 0.00 0.00 61 1004.5
20260507171531 6 238 4.8 11.3 0.00 0.00 0.00 60 1004.6
20260507170028 7 302 3.2 14.5 0.00 0.00 0.00 58 1004.5
20260507164530 6 234 3.2 11.3 0.00 0.00 0.00 62 1004.7
20260507163030 6 266 3.2 12.9 0.00 0.00 0.00 71 1004.9
20260507161530 4 242 3.2 14.5 0.00 0.00 0.00 78 1005.1
20260507160028 5 314 1.6 14.5 0.00 0.00 0.00 74 1004.9
20260507154526 6 222 3.2 11.3 0.00 0.00 0.00 67 1004.7
20260507153030 6 224 4.8 12.9 0.00 0.00 0.00 65 1004.7
20260507151528 7 294 3.2 11.3 0.00 0.00 0.00 63 1004.4
20260507150028 8 284 3.2 14.5 0.00 0.00 0.00 60 1004.2
20260507144526 7 244 1.6 9.7 0.00 0.00 0.00 60 1004.2
20260507143028 8 256 3.2 12.9 0.00 0.00 0.00 58 1004.1
20260507141530 8 246 1.6 9.7 0.00 0.00 0.00 60 1003.9
20260507140029 6 296 3.2 14.5 0.00 0.00 0.00 63 1004.2
20260507134526 6 256 3.2 9.7 0.00 0.00 0.00 61 1004.2
20260507133030 7 277 1.6 4.8 0.00 0.00 0.00 62 1004.0
20260507131532 6 251 0.0 3.2 0.00 0.00 0.00 68 1004.1
20260507130029 5 0 0.0 6.4 0.00 0.00 0.00 72 1004.2
20260507124527 5 281 1.6 6.4 0.00 0.00 0.00 71 1004.2
20260507123033 5 0 1.6 4.8 0.00 0.00 0.00 72 1004.2
20260507121539 5 0 0.0 11.3 0.00 0.00 0.00 77 1004.3
20260507120029 5 0 0.0 3.2 0.00 0.00 0.00 79 1004.2
20260507114527 4 0 0.0 4.8 0.00 0.00 0.00 84 1004.3
20260507113033 4 0 0.0 1.6 0.00 0.00 0.00 87 1004.2
20260507111530 4 0 0.0 1.6 0.00 0.00 0.00 89 1004.2
20260507110031 3 0 0.0 4.8 0.00 0.00 0.00 90 1004.0
20260507104531 4 0 0.0 0.0 0.00 0.00 0.00 91 1003.8
20260507101536 3 0 0.0 0.0 0.00 0.00 0.00 92 1003.5
20260507083036 4 0 0.0 1.6 0.00 0.00 0.00 90 1004.2
20260507081529 4 0 0.0 0.0 0.00 0.00 0.00 89 1004.0
20260507080028 4 0 0.0 0.0 0.00 0.00 0.00 87 1004.3
20260507074529 4 0 0.0 1.6 0.00 0.00 0.00 87 1004.4
20260507073029 5 0 0.0 3.2 0.00 0.00 0.00 86 1004.4
20260507071535 5 0 0.0 3.2 0.00 0.00 0.00 87 1004.6
20260507070027 5 0 0.0 4.8 0.00 0.00 0.00 88 1004.6
20260507064530 5 279 0.0 3.2 0.00 0.00 0.00 88 1004.7
20260507063029 5 0 0.0 3.2 0.00 0.00 0.00 89 1004.8
20260507061532 5 0 0.0 4.8 0.00 0.00 0.00 87 1004.7
20260507060027 5 0 0.0 3.2 0.00 0.00 0.00 87 1004.9
20260507054530 5 0 0.0 1.6 0.00 0.00 0.00 88 1005.1
20260507053028 5 0 0.0 3.2 0.00 0.00 0.00 88 1005.2
20260507051529 5 0 0.0 3.2 0.00 0.00 0.00 87 1005.3
20260507050029 5 0 0.0 3.2 0.00 0.00 0.00 87 1005.5
20260507044530 5 0 0.0 4.8 0.00 0.00 0.00 87 1005.6